Tracking 28091 objects as of 30-Sep-2023
HD Live streaming from Space Station
objects crossing your sky now

STARLINK-30202

Track STARLINK-30202 now!
10-day predictions
STARLINK-30202 is classified as:


NORAD ID: 57293
Int'l Code: 2023-096D
Perigee: 540.0 km
Apogee: 547.6 km
Inclination: 43.0 °
Period: 95.4 minutes
Semi major axis: 6914 km
RCS: Unknown
Launch date: July 10, 2023
Source: United States (US)
Launch site: AIR FORCE EASTERN TEST RANGE (AFETR)
Your satellite tracking list
Your tracking list is empty




NASA's NSSDC Master Catalog

Two Line Element Set (TLE):
1 57293U 23096D   23273.03961488  .00018765  00000-0  11496-2 0  9992
2 57293  43.0016  26.1509 0005522 350.4178   9.6561 15.09857357 13514
Source of the keplerian elements: AFSPC